[[{"header":{"parameterUnit":"m.s-1","parameterCategory":1,"la1":30.2991,"la2":30.254,"lo1":-89.0895,"lo2":-89.0444,"dy":0.0017,"dx":0.0017,"nx":28,"ny":28,"refTime":"2025-09-12T21:00:00:Z","depth":0,"parameterNumber":2,"parameterNumberName":"U-component_of_WINDS"},"data":[0,0,0,0,0,0,0,0,0,0,0,0,0,0,0,0,0,0,0,0,0,0,0,0,0,0,0,0,0,0,0,0,0,0,0,0,0,0,0,0,0,0,0,0,0,0,0,0,0,0,0,0,0,0,0,0,0,0,-0.7879,-0.7879,0,-0.7812,-0.7812,-0.7811,-0.7761,-0.7761,-0.7761,-0.776,-0.7689,-0.7688,-0.7687,0,0,0,0,0,0,0,0,0,0,0,0,0,-0.7963,-0.7962,-0.7879,-0.7879,-0.7878,-0.7812,-0.7812,-0.7811,-0.7761,-0.7761,-0.776,-0.776,-0.769,-0.7688,-0.7686,0,0,0,0,0,0,0,0,0,0,0,0,0,-0.7915,-0.7962,-0.7879,-0.7845,-0.7842,-0.7813,-0.7812,-0.781,-0.7762,-0.7761,-0.776,-0.776,-0.7691,-0.7688,-0.7686,-0.7685,0,0,-0.7679,-0.7678,0,0,0,0,0,0,0,0,-0.7917,-0.7912,-0.7851,-0.7848,-0.7843,-0.7795,-0.7815,-0.7768,-0.7762,-0.7792,-0.776,-0.7759,-0.7725,-0.772,-0.7708,-0.7682,-0.7679,-0.7679,-0.7678,-0.7677,-0.7676,0,0,0,0,0,0,0,-0.7921,-0.7914,-0.7853,-0.785,-0.7846,-0.7833,-0.7825,-0.7806,-0.7763,-0.7789,-0.7786,-0.7778,-0.7723,-0.7711,-0.7706,-0.7678,-0.7679,-0.7677,-0.7676,-0.7675,-0.7647,-0.7648,0,0,0,0,0,0,-0.793,-0.7917,-0.7855,-0.7851,-0.788,-0.7832,-0.7823,-0.7811,-0.7763,-0.7755,-0.7779,-0.7776,-0.7715,-0.7709,-0.7704,-0.7699,-0.7677,-0.7675,-0.7673,-0.7646,-0.7647,-0.7648,0,0,0,0,0,0,-0.7932,-0.7925,-0.7858,-0.7883,-0.7873,-0.7831,-0.7818,-0.781,-0.7798,-0.7755,-0.7747,-0.7775,-0.7714,-0.7707,-0.769,-0.7696,-0.7674,-0.7672,-0.7646,-0.7647,-0.7648,-0.7691,0,0,0,0,0,0,-0.7934,-0.7926,-0.7925,-0.7883,-0.7872,-0.7846,-0.7818,-0.7809,-0.7795,-0.779,-0.7749,-0.7742,-0.7713,-0.7694,-0.7688,-0.7693,-0.767,-0.7645,-0.7646,-0.7647,-0.7689,-0.7693,-0.7697,0,0,0,0,0,-0.7938,-0.7939,-0.7925,-0.7918,-0.7871,-0.7846,-0.784,-0.7808,-0.7795,-0.7794,-0.7767,-0.7743,-0.7697,-0.7693,-0.7686,-0.769,-0.7644,-0.7646,-0.7647,-0.7687,-0.7692,-0.7697,0,0,0,0,0,0,-0.7982,-0.7933,-0.7917,-0.7906,-0.7881,-0.7838,-0.7836,-0.7814,-0.7792,-0.7789,-0.7749,-0.774,-0.7728,-0.7707,-0.7703,-0.7686,-0.7668,-0.7668,-0.77,-0.7705,-0.7709,-0.7714,-0.7668,0,0,0,0,0,-0.7991,-0.7976,-0.7933,-0.7927,-0.7916,-0.7878,-0.7866,-0.7844,-0.7816,-0.7805,-0.7776,-0.7749,-0.7728,-0.7716,-0.7694,-0.7686,-0.7676,-0.7685,-0.7689,-0.7693,-0.7693,-0.7687,-0.7691,-0.7652,-0.7652,-0.7652,0,0,-0.8008,-0.798,-0.7972,-0.7936,-0.7914,-0.7898,-0.7869,-0.7854,-0.7842,-0.7802,-0.7785,-0.7763,-0.773,-0.7718,-0.7711,-0.77,-0.7702,-0.7695,-0.7698,-0.7696,-0.7689,-0.7693,-0.7696,-0.7653,-0.7653,-0.7653,0,0,-0.8032,-0.8009,-0.8002,-0.7981,-0.7948,-0.7923,-0.7921,-0.7882,-0.7866,-0.7848,-0.7818,-0.7803,-0.7769,-0.7747,-0.7731,-0.7748,-0.7725,-0.7742,-0.7763,-0.7758,-0.7761,-0.7764,-0.777,-0.7772,-0.7743,-0.7743,-0.7743,0,-0.8058,-0.8034,-0.8,-0.7987,-0.7972,-0.7936,-0.7928,-0.7909,-0.7871,-0.7861,-0.785,-0.7806,-0.7782,-0.7764,-0.7768,-0.7757,-0.7753,-0.7746,-0.7764,-0.7766,-0.7768,-0.7773,-0.7775,-0.7745,-0.7745,-0.7745,-0.7744,0,-0.8067,-0.8051,-0.8049,-0.8014,-0.7998,-0.7988,-0.7953,-0.7941,-0.792,-0.7896,-0.7879,-0.7848,-0.7821,-0.7815,-0.7794,-0.7794,-0.7788,-0.7771,-0.7751,-0.7774,-0.7778,-0.778,-0.7748,-0.7748,-0.7747,-0.7746,0,0,-0.8116,-0.8064,-0.8063,-0.8047,-0.8009,-0.7995,-0.7983,-0.7957,-0.7948,-0.7923,-0.7911,-0.7884,-0.7868,-0.785,-0.7826,-0.7822,-0.7837,-0.7805,-0.7804,-0.7812,-0.7836,-0.7849,-0.7852,-0.7822,-0.7823,-0.7823,-0.7838,0,-0.8134,-0.8111,-0.8081,-0.8068,-0.8053,-0.8019,-0.8008,-0.7983,-0.7961,-0.7944,-0.7919,-0.79,-0.788,-0.787,-0.7864,-0.7837,-0.7841,-0.7835,-0.7811,-0.781,-0.782,-0.7854,-0.7867,-0.7883,-0.784,-0.784,-0.784,0,-0.8151,-0.8129,-0.8115,-0.8078,-0.8071,-0.8062,-0.8035,-0.802,-0.7991,-0.7975,-0.7957,-0.7931,-0.7917,-0.79,-0.7879,-0.7875,-0.7863,-0.7849,-0.7849,-0.7845,-0.7826,-0.7851,-0.7888,-0.789,-0.7842,-0.7842,-0.7842,0,-0.8189,-0.8155,-0.8142,-0.813,-0.8087,-0.8081,-0.8063,-0.8034,-0.802,-0.7997,-0.7987,-0.7962,-0.7949,-0.793,-0.7899,-0.7889,-0.7881,-0.7862,-0.7867,-0.7868,-0.7867,-0.7867,-0.7902,-0.786,-0.786,-0.786,-0.786,0,-0.8212,-0.8204,-0.8159,-0.8151,-0.8141,-0.8107,-0.8099,-0.8077,-0.8051,-0.8038,-0.8007,-0.7996,-0.7955,-0.7939,-0.7915,-0.7901,-0.7895,-0.7881,-0.7875,-0.7884,-0.7886,-0.7875,-0.7873,-0.786,-0.786,-0.786,-0.786,0,-0.8252,-0.8221,-0.8205,-0.8166,-0.8156,-0.8151,-0.8117,-0.8108,-0.8084,-0.8068,-0.8062,-0.8025,-0.8004,-0.7971,-0.794,-0.7924,-0.7914,-0.7904,-0.7924,-0.792,-0.7928,-0.7928,-0.7958,-0.796,-0.7917,-0.7917,-0.7917,0,-0.8268,-0.8262,-0.8222,-0.8212,-0.8195,-0.8178,-0.8164,-0.813,-0.8117,-0.8084,-0.8079,-0.8056,-0.8035,-0.8004,-0.7973,-0.795,-0.7938,-0.795,-0.7934,-0.7944,-0.7938,-0.7939,-0.7938,-0.7954,-0.7955,-0.7955,-0.7955,0,-0.8301,-0.8286,-0.8267,-0.8244,-0.8228,-0.8207,-0.8185,-0.8178,-0.8139,-0.8126,-0.8105,-0.8089,-0.8058,-0.8036,-0.8008,-0.7988,-0.7966,-0.7961,-0.7961,-0.797,-0.7982,-0.7976,-0.7934,-0.796,-0.796,-0.7959,-0.7959,-0.7959,-0.8329,-0.8322,-0.8294,-0.8274,-0.8254,-0.8234,-0.8224,-0.8199,-0.8181,-0.8153,-0.8134,-0.8114,-0.8086,-0.8047,-0.8028,-0.8012,-0.8002,-0.8002,-0.8002,-0.8003,-0.8006,-0.7985,-0.8007,-0.8007,-0.8007,-0.8006,-0.8006,0,-0.836,-0.834,-0.8323,-0.8293,-0.8278,-0.8258,-0.8233,-0.8221,-0.8204,-0.818,-0.8161,-0.8136,-0.8115,-0.8083,-0.8059,-0.8052,-0.8041,-0.8046,-0.8046,-0.8042,-0.8016,-0.8019,-0.8056,-0.8056,-0.8056,-0.8056,-0.8056,-0.8056,-0.8375,-0.8362,-0.8344,-0.832,-0.83,-0.8281,-0.8268,-0.8249,-0.823,-0.8204,-0.8186,-0.8166,-0.8139,-0.8113,-0.8092,-0.8083,-0.8075,-0.8085,-0.8073,-0.8049,-0.8044,-0.804,-0.8042,-0.8083,-0.8083,-0.81,-0.81,-0.81]},{"header":{"parameterUnit":"m.s-1","parameterCategory":1,"la1":30.2991,"la2":30.254,"lo1":-89.0895,"lo2":-89.0444,"dy":0.0017,"dx":0.0017,"nx":28,"ny":28,"refTime":"2025-09-12T21:00:00:Z","depth":0,"parameterNumber":3,"parameterNumberName":"V-component_of_WINDS"},"data":[0,0,0,0,0,0,0,0,0,0,0,0,0,0,0,0,0,0,0,0,0,0,0,0,0,0,0,0,0,0,0,0,0,0,0,0,0,0,0,0,0,0,0,0,0,0,0,0,0,0,0,0,0,0,0,0,0,0,2.4697,2.4697,0,2.4683,2.4683,2.4683,2.4659,2.4659,2.4658,2.4658,2.4644,2.4644,2.4644,0,0,0,0,0,0,0,0,0,0,0,0,0,2.4703,2.4703,2.4697,2.4697,2.4697,2.4683,2.4683,2.4683,2.4659,2.4659,2.4658,2.4658,2.4644,2.4644,2.4644,0,0,0,0,0,0,0,0,0,0,0,0,0,2.4696,2.4703,2.4697,2.4683,2.4682,2.4683,2.4683,2.4683,2.4659,2.4659,2.4658,2.4658,2.4644,2.4644,2.4644,2.4657,0,0,2.4644,2.4644,0,0,0,0,0,0,0,0,2.4696,2.4696,2.4685,2.4684,2.4683,2.4672,2.468,2.4674,2.466,2.4668,2.4658,2.4657,2.4654,2.4653,2.4652,2.4656,2.4656,2.4644,2.4644,2.4644,2.4644,0,0,0,0,0,0,0,2.4697,2.4696,2.4691,2.4685,2.4684,2.4678,2.4676,2.4679,2.4665,2.4667,2.4665,2.4664,2.4653,2.4652,2.4651,2.4655,2.4644,2.4644,2.4644,2.4644,2.4671,2.4671,0,0,0,0,0,0,2.4699,2.4697,2.4692,2.4691,2.4688,2.4678,2.4676,2.4676,2.4665,2.4662,2.4665,2.4663,2.4652,2.4651,2.465,2.4665,2.4644,2.4644,2.4644,2.467,2.4671,2.4672,0,0,0,0,0,0,2.47,2.4699,2.4692,2.4693,2.4692,2.4679,2.4679,2.4676,2.4675,2.4663,2.466,2.4666,2.4651,2.465,2.4656,2.4665,2.4644,2.4644,2.4669,2.467,2.4671,2.4695,0,0,0,0,0,0,2.47,2.4699,2.4704,2.4694,2.4692,2.4698,2.468,2.4677,2.4675,2.4673,2.4663,2.4661,2.4651,2.4656,2.4656,2.4664,2.4644,2.4668,2.467,2.4671,2.4694,2.4697,2.47,0,0,0,0,0,2.47,2.4711,2.4705,2.4704,2.4698,2.4698,2.4697,2.4685,2.4676,2.4681,2.4673,2.4661,2.4664,2.4656,2.4656,2.4665,2.4668,2.4669,2.4671,2.4692,2.4696,2.47,0,0,0,0,0,0,2.4723,2.471,2.4702,2.471,2.4706,2.4694,2.47,2.469,2.4688,2.4686,2.4671,2.4669,2.4676,2.4671,2.4663,2.4677,2.4664,2.4666,2.468,2.4684,2.4687,2.4688,2.4644,0,0,0,0,0,2.4729,2.4731,2.4719,2.4727,2.4725,2.4713,2.4713,2.4704,2.4699,2.4697,2.4689,2.4684,2.4684,2.4684,2.4683,2.4693,2.4691,2.4699,2.4702,2.4705,2.4706,2.4712,2.4715,2.4677,2.4677,2.4677,0,0,2.4742,2.4735,2.4736,2.4732,2.4727,2.4729,2.4712,2.4714,2.4716,2.4697,2.4701,2.4696,2.4689,2.4697,2.47,2.4693,2.4717,2.4707,2.4709,2.4709,2.4714,2.4717,2.472,2.4678,2.4678,2.4677,0,0,2.4765,2.476,2.4766,2.4762,2.4756,2.4748,2.4749,2.474,2.4735,2.474,2.4726,2.4727,2.4727,2.4723,2.4721,2.4744,2.4733,2.4744,2.476,2.4766,2.4769,2.4771,2.4779,2.4782,2.4746,2.4746,2.4746,0,2.4781,2.4784,2.4771,2.4775,2.4773,2.4757,2.4763,2.476,2.4753,2.4753,2.4745,2.4744,2.4739,2.4746,2.4752,2.4751,2.4752,2.4745,2.4769,2.4772,2.4774,2.4781,2.4785,2.4747,2.4747,2.4747,2.4747,0,2.4804,2.4806,2.4812,2.4806,2.4805,2.481,2.4799,2.4799,2.4791,2.4784,2.4789,2.4782,2.4779,2.478,2.4772,2.4786,2.4782,2.4772,2.4758,2.4779,2.4786,2.4789,2.4749,2.4748,2.4748,2.4748,0,0,2.4841,2.4828,2.4831,2.4828,2.482,2.4821,2.4826,2.4823,2.4824,2.4821,2.4824,2.4824,2.4815,2.4813,2.4804,2.4809,2.4828,2.4799,2.4798,2.4804,2.4843,2.485,2.4854,2.4821,2.4821,2.4822,2.4843,0,2.4862,2.4869,2.4858,2.4868,2.4869,2.4854,2.4858,2.4854,2.4847,2.4848,2.4841,2.4841,2.4829,2.4828,2.4832,2.4825,2.4835,2.4823,2.4824,2.4824,2.4825,2.4857,2.4865,2.4885,2.4846,2.4847,2.4847,0,2.4888,2.4886,2.4895,2.4887,2.4887,2.4891,2.4888,2.4889,2.4884,2.4879,2.4877,2.4866,2.487,2.4858,2.4863,2.4855,2.4854,2.4851,2.4851,2.4851,2.4836,2.4857,2.4892,2.4895,2.4851,2.4851,2.485,0,2.4914,2.4913,2.4919,2.4917,2.4907,2.491,2.4907,2.4901,2.49,2.4898,2.4897,2.4896,2.4894,2.4893,2.4883,2.4875,2.489,2.4876,2.4885,2.4886,2.4889,2.4889,2.4924,2.4889,2.4889,2.4889,2.4889,0,2.4938,2.4945,2.493,2.4934,2.4941,2.4928,2.4935,2.493,2.4925,2.4927,2.4914,2.4917,2.4903,2.4904,2.4896,2.4902,2.4902,2.4898,2.4895,2.4898,2.4899,2.4898,2.4896,2.489,2.489,2.489,2.489,0,2.4968,2.4958,2.4964,2.4954,2.4952,2.4958,2.495,2.4953,2.4946,2.4949,2.4949,2.4938,2.4939,2.4928,2.4927,2.4922,2.4931,2.4926,2.4932,2.4931,2.4941,2.494,2.4976,2.498,2.4944,2.4944,2.4944,0,2.4984,2.4989,2.498,2.4981,2.4978,2.4979,2.4978,2.4967,2.4967,2.4962,2.4965,2.4965,2.4964,2.4965,2.4957,2.4956,2.4951,2.4964,2.4951,2.4954,2.4951,2.4951,2.4951,2.4966,2.4967,2.4967,2.4968,0,2.5014,2.5009,2.5009,2.5007,2.5007,2.5005,2.5002,2.5004,2.4991,2.4992,2.4992,2.4992,2.499,2.499,2.4987,2.4983,2.4974,2.4972,2.4974,2.4977,2.4981,2.4979,2.4939,2.4971,2.4971,2.497,2.497,2.497,2.5037,2.5041,2.5035,2.5036,2.5032,2.503,2.5033,2.5026,2.5026,2.5025,2.5018,2.502,2.5015,2.501,2.5007,2.5009,2.5002,2.5005,2.5006,2.5007,2.5009,2.4981,2.5008,2.5008,2.5008,2.5008,2.5008,0,2.5066,2.5062,2.5063,2.5059,2.506,2.5051,2.5047,2.5048,2.505,2.5046,2.5045,2.5046,2.5046,2.5038,2.5037,2.504,2.5035,2.504,2.5039,2.5039,2.5015,2.5013,2.5044,2.5044,2.5044,2.5044,2.5044,2.5044,2.5081,2.5087,2.5082,2.5085,2.5081,2.5083,2.5082,2.508,2.5077,2.5078,2.5078,2.5073,2.5068,2.5067,2.5066,2.5064,2.5064,2.507,2.5066,2.5044,2.504,2.5037,2.5035,2.507,2.507,2.509,2.509,2.5091]}]]